Regional Weather Roundup
Issued by NWS

Home | Current Version | Previous Version | Graphics & Text | Print | Product List | Glossary On
Versions: 1 2 3 4 5 6 7 8 9 10 11 12 13 14 15 16 17 18 19 20 21 22 23 24 25 26 27 28 29 30 31 32 33 34 35 36 37 38 39 40 41 42 43 44 45 46 47 48 49 50
902
ASUS43 KLMK 221910
RWRKY
KENTUCKY REGIONAL WEATHER ROUNDUP
NATIONAL WEATHER SERVICE LOUISVILLE KY
300 PM EDT FRI SEP 22 2017

NOTE "FAIR" INDICATES FEW OR NO CLOUDS BELOW 12,000 FEET
WITH NO SIGNIFICANT WEATHER AND/OR OBSTRUCTIONS TO VISIBILITY.

KYZ001>023-026-027-061>063-070>075-222000-
WESTERN AND SOUTH CENTRAL KENTUCKY

CITY           SKY/WX    TMP DP  RH WIND       PRES   REMARKS
PADUCAH        SUNNY     91  66  43 E8        30.02F HX  93
HENDERSON      MOSUNNY   91  70  49 NE9       30.04F HX  96
OWENSBORO      MOSUNNY   91  68  46 E8        30.05F HX  95
HOPKINSVILLE   MOSUNNY   87  66  49 E6        30.03F
BOWLING GREEN  MOSUNNY   89  68  49 NE7       30.04F HX  93
GLASGOW        MOSUNNY   89  65  45 SE3       30.05F HX  90
$$

KYZ024-025-028>034-038-045-046-053-222000-
NORTH CENTRAL KENTUCKY

CITY           SKY/WX    TMP DP  RH WIND       PRES   REMARKS
LOUISVILLE/SDF MOSUNNY   90  67  46 SE9       30.05F HX  93
LOUISVILLE/LOU SUNNY     88  68  51 E5        30.07F HX  91
FORT KNOX      SUNNY     87  67  50 E8        30.06F
$$

KYZ035>037-039>044-047>052-055>060-089>105-222000-
NORTHEAST KENTUCKY

CITY           SKY/WX    TMP DP  RH WIND       PRES   REMARKS
LEXINGTON      MOSUNNY   87  67  51 NE8       30.09F HX  90
COVINGTON      MOSUNNY   88  69  53 SE7       30.08F HX  92
FRANKFORT      SUNNY     89  63  41 E7        30.07F HX  90
$$

KYZ054-064>069-076>088-106>120-222000-
SOUTHEAST KENTUCKY

CITY           SKY/WX    TMP DP  RH WIND       PRES   REMARKS
JACKSON        MOSUNNY   84  66  54 CALM      30.11F
LONDON         MOSUNNY   86  64  47 NE9       30.09F
SOMERSET       PTSUNNY   86  63  45 CALM      30.08F
MIDDLESBORO    SUNNY     86  65  48 CALM      30.08F
MONTICELLO     PTCLDY    84  66  54 VRB7      30.09F
$$





USA.gov is the U.S. government's official web portal to all federal, state and local government web resources and services.